| time (UTC) | temp F | wind direction | speed MPH | gust MPH | rain 1hr in | rain 24hr in | rain mn in | humidity % | barometer mb |
| 20260508032506 | 45 | 252 | 23.0 | 33.0 | 0.00 | 0.00 | 0.00 | 87 | 1004.1 |
| 20260508032005 | 45 | 235 | 20.0 | 33.0 | 0.00 | 0.00 | 0.00 | 87 | 1004.1 |
| 20260508031504 | 45 | 241 | 16.0 | 31.0 | 0.00 | 0.00 | 0.00 | 86 | 1004.1 |
| 20260508031006 | 45 | 233 | 19.0 | 30.0 | 0.00 | 0.00 | 0.00 | 87 | 1004.2 |
| 20260508030006 | 44 | 222 | 21.0 | 33.0 | 0.00 | 0.00 | 0.00 | 87 | 1004.2 |
| 20260508024505 | 44 | 254 | 23.0 | 34.0 | 0.00 | 0.00 | 0.00 | 87 | 1004.3 |
| 20260508023507 | 44 | 229 | 22.0 | 34.0 | 0.00 | 0.00 | 0.00 | 87 | 1004.1 |
| 20260508023005 | 44 | 240 | 17.0 | 36.0 | 0.00 | 0.00 | 0.00 | 87 | 1004.2 |
| 20260508022504 | 44 | 231 | 17.0 | 36.0 | 0.00 | 0.00 | 0.00 | 87 | 1004.1 |
| 20260508022006 | 44 | 206 | 23.0 | 33.0 | 0.00 | 0.00 | 0.00 | 88 | 1004.2 |
| 20260508021505 | 44 | 230 | 17.0 | 38.0 | 0.00 | 0.00 | 0.00 | 88 | 1004.2 |
| 20260508021005 | 44 | 252 | 21.0 | 38.0 | 0.00 | 0.00 | 0.00 | 88 | 1004.5 |
| 20260508020504 | 44 | 245 | 16.0 | 37.0 | 0.00 | 0.00 | 0.00 | 88 | 1004.4 |
| 20260508020006 | 44 | 242 | 18.0 | 37.0 | 0.00 | 0.00 | 0.00 | 88 | 1004.5 |
| 20260508015505 | 44 | 233 | 27.0 | 37.0 | 0.00 | 0.00 | 0.00 | 88 | 1004.5 |
| 20260508014504 | 44 | 248 | 16.0 | 39.0 | 0.00 | 0.00 | 0.00 | 87 | 1004.5 |
| 20260508014006 | 45 | 247 | 23.0 | 39.0 | 0.00 | 0.00 | 0.00 | 87 | 1004.5 |
| 20260508013504 | 45 | 240 | 17.0 | 32.0 | 0.00 | 0.00 | 0.00 | 86 | 1004.5 |
| 20260508013006 | 45 | 238 | 20.0 | 32.0 | 0.00 | 0.00 | 0.00 | 86 | 1004.5 |
| 20260508012006 | 45 | 246 | 20.0 | 37.0 | 0.00 | 0.00 | 0.00 | 86 | 1004.6 |
| 20260508011508 | 45 | 239 | 19.0 | 30.0 | 0.00 | 0.00 | 0.00 | 86 | 1004.8 |
| 20260508011005 | 45 | 236 | 20.0 | 32.0 | 0.00 | 0.00 | 0.00 | 85 | 1004.7 |
| 20260508010504 | 45 | 253 | 21.0 | 32.0 | 0.00 | 0.00 | 0.00 | 84 | 1004.9 |
| 20260508010006 | 44 | 262 | 11.0 | 27.0 | 0.00 | 0.00 | 0.00 | 84 | 1004.7 |
| 20260508005505 | 44 | 247 | 19.0 | 27.0 | 0.00 | 0.00 | 0.00 | 84 | 1004.7 |
| 20260508004504 | 44 | 245 | 18.0 | 34.0 | 0.00 | 0.00 | 0.00 | 83 | 1004.6 |
| 20260508002505 | 44 | 257 | 21.0 | 34.0 | 0.00 | 0.00 | 0.00 | 83 | 1004.7 |
| 20260508002006 | 44 | 252 | 21.0 | 40.0 | 0.00 | 0.00 | 0.00 | 83 | 1004.8 |
| 20260508001505 | 44 | 247 | 22.0 | 40.0 | 0.00 | 0.00 | 0.00 | 83 | 1004.6 |
| 20260508001006 | 44 | 247 | 18.0 | 36.0 | 0.00 | 0.01 | 0.00 | 83 | 1004.5 |
| 20260508000505 | 44 | 252 | 26.0 | 36.0 | 0.00 | 0.01 | 0.00 | 83 | 1004.6 |
| 20260508000006 | 44 | 250 | 16.0 | 28.0 | 0.00 | 0.01 | 0.00 | 83 | 1004.5 |
| 20260507235505 | 44 | 238 | 19.0 | 28.0 | 0.00 | 0.01 | 0.00 | 83 | 1004.8 |
| 20260507235006 | 44 | 250 | 17.0 | 34.0 | 0.00 | 0.01 | 0.00 | 83 | 1004.8 |
| 20260507233506 | 45 | 236 | 11.0 | 34.0 | 0.00 | 0.03 | 0.00 | 86 | 1005.0 |
| 20260507233006 | 45 | 231 | 21.0 | 39.0 | 0.00 | 0.03 | 0.00 | 87 | 1004.9 |
| 20260507232507 | 45 | 245 | 26.0 | 39.0 | 0.00 | 0.03 | 0.00 | 88 | 1004.8 |
| 20260507232006 | 45 | 249 | 17.0 | 32.0 | 0.00 | 0.03 | 0.00 | 88 | 1004.9 |
| 20260507231505 | 45 | 248 | 15.0 | 30.0 | 0.00 | 0.04 | 0.00 | 89 | 1004.8 |
| 20260507231006 | 45 | 238 | 20.0 | 36.0 | 0.00 | 0.06 | 0.00 | 89 | 1004.6 |
| 20260507230505 | 45 | 235 | 15.0 | 36.0 | 0.00 | 0.08 | 0.00 | 90 | 1004.6 |
| 20260507224506 | 46 | 347 | 17.0 | 34.0 | 0.00 | 0.16 | 0.00 | 91 | 1004.8 |
| 20260507224006 | 46 | 302 | 29.0 | 34.0 | 0.00 | 0.17 | 0.00 | 91 | 1004.7 |
| 20260507223505 | 46 | 244 | 21.0 | 34.0 | 0.00 | 0.18 | 0.00 | 91 | 1004.6 |
| 20260507223006 | 46 | 347 | 17.0 | 30.0 | 0.00 | 0.18 | 0.00 | 92 | 1004.6 |
| 20260507221504 | 47 | 13 | 21.0 | 32.0 | 0.00 | 0.19 | 0.00 | 93 | 1004.6 |
| 20260507221009 | 47 | 299 | 15.0 | 27.0 | 0.00 | 0.19 | 0.00 | 93 | 1004.5 |
| 20260507220504 | 47 | 332 | 15.0 | 25.0 | 0.00 | 0.21 | 0.00 | 93 | 1004.6 |
| 20260507215005 | 48 | 332 | 16.0 | 26.0 | 0.00 | 0.27 | 0.00 | 92 | 1004.3 |
| 20260507214504 | 48 | 349 | 12.0 | 34.0 | 0.00 | 0.38 | 0.00 | 92 | 1004.1 |
| 20260507214005 | 48 | 1 | 17.0 | 34.0 | 0.00 | 0.38 | 0.00 | 92 | 1004.0 |
| 20260507213504 | 48 | 342 | 17.0 | 27.0 | 0.00 | 0.40 | 0.00 | 92 | 1004.1 |
| 20260507213005 | 48 | 310 | 17.0 | 27.0 | 0.00 | 0.52 | 0.00 | 92 | 1003.8 |
| 20260507212005 | 48 | 250 | 14.0 | 27.0 | 0.00 | 0.52 | 0.00 | 92 | 1003.5 |
| 20260507211504 | 48 | 237 | 16.0 | 23.0 | 0.00 | 0.52 | 0.00 | 92 | 1003.5 |
| 20260507211006 | 48 | 233 | 15.0 | 29.0 | 0.00 | 0.52 | 0.00 | 92 | 1003.4 |
| 20260507210504 | 48 | 240 | 15.0 | 29.0 | 0.00 | 0.52 | 0.00 | 92 | 1003.5 |
| 20260507210006 | 49 | 243 | 18.0 | 30.0 | 0.00 | 0.53 | 0.00 | 92 | 1003.3 |
| 20260507205505 | 49 | 242 | 18.0 | 30.0 | 0.00 | 0.55 | 0.00 | 93 | 1003.2 |
| 20260507204504 | 49 | 242 | 19.0 | 31.0 | 0.00 | 0.55 | 0.00 | 94 | 1003.1 |
| 20260507204005 | 49 | 248 | 18.0 | 25.0 | 0.00 | 0.55 | 0.00 | 94 | 1003.3 |
| 20260507203504 | 49 | 240 | 14.0 | 30.0 | 0.00 | 0.55 | 0.00 | 94 | 1003.4 |
| 20260507203006 | 49 | 245 | 14.0 | 30.0 | 0.00 | 0.55 | 0.00 | 94 | 1003.7 |
| 20260507202504 | 49 | 238 | 18.0 | 26.0 | 0.00 | 0.55 | 0.00 | 93 | 1003.6 |
| 20260507202005 | 49 | 231 | 18.0 | 26.0 | 0.00 | 0.55 | 0.00 | 93 | 1003.8 |
| 20260507201504 | 49 | 244 | 15.0 | 25.0 | 0.00 | 0.55 | 0.00 | 93 | 1003.6 |
| 20260507201005 | 49 | 238 | 15.0 | 25.0 | 0.00 | 0.55 | 0.00 | 93 | 1004.0 |
| 20260507200504 | 49 | 217 | 17.0 | 27.0 | 0.00 | 0.55 | 0.00 | 92 | 1003.7 |
| 20260507200005 | 49 | 224 | 19.0 | 27.0 | 0.00 | 0.55 | 0.00 | 92 | 1003.9 |
| 20260507195504 | 49 | 236 | 17.0 | 24.0 | 0.00 | 0.55 | 0.00 | 91 | 1003.9 |
| 20260507195006 | 50 | 236 | 14.0 | 32.0 | 0.00 | 0.56 | 0.00 | 91 | 1003.9 |
| 20260507194505 | 50 | 244 | 15.0 | 32.0 | 0.00 | 0.56 | 0.00 | 90 | 1004.0 |
| 20260507194005 | 50 | 252 | 12.0 | 29.0 | 0.00 | 0.56 | 0.00 | 89 | 1003.9 |
| 20260507193504 | 51 | 254 | 19.0 | 29.0 | 0.00 | 0.56 | 0.00 | 89 | 1004.0 |
| 20260507193005 | 51 | 255 | 15.0 | 30.0 | 0.00 | 0.56 | 0.00 | 88 | 1003.7 |
| 20260507192504 | 51 | 249 | 18.0 | 30.0 | 0.00 | 0.56 | 0.00 | 88 | 1003.9 |
| 20260507192005 | 51 | 237 | 18.0 | 28.0 | 0.00 | 0.56 | 0.00 | 87 | 1003.6 |
| 20260507191504 | 51 | 231 | 17.0 | 28.0 | 0.00 | 0.56 | 0.00 | 87 | 1003.8 |
| 20260507191005 | 52 | 223 | 17.0 | 27.0 | 0.00 | 0.56 | 0.00 | 87 | 1003.8 |
| 20260507190504 | 52 | 230 | 18.0 | 27.0 | 0.00 | 0.56 | 0.00 | 87 | 1004.0 |
| 20260507185504 | 53 | 253 | 11.0 | 26.0 | 0.00 | 0.57 | 0.00 | 84 | 1003.7 |
| 20260507185005 | 53 | 234 | 21.0 | 26.0 | 0.00 | 0.57 | 0.00 | 84 | 1003.8 |
| 20260507184005 | 53 | 255 | 17.0 | 26.0 | 0.00 | 0.57 | 0.00 | 84 | 1003.4 |
| 20260507183504 | 53 | 246 | 12.0 | 27.0 | 0.00 | 0.57 | 0.00 | 85 | 1003.4 |
| 20260507183006 | 53 | 220 | 21.0 | 27.0 | 0.00 | 0.57 | 0.00 | 85 | 1003.2 |
| 20260507182504 | 53 | 227 | 19.0 | 31.0 | 0.00 | 0.57 | 0.00 | 86 | 1003.2 |
| 20260507182005 | 53 | 254 | 18.0 | 31.0 | 0.00 | 0.57 | 0.00 | 86 | 1003.2 |
| 20260507181504 | 53 | 259 | 11.0 | 24.0 | 0.00 | 0.57 | 0.00 | 86 | 1003.0 |
| 20260507181005 | 52 | 238 | 15.0 | 24.0 | 0.00 | 0.57 | 0.00 | 87 | 1003.1 |
| 20260507180504 | 52 | 231 | 17.0 | 27.0 | 0.00 | 0.57 | 0.00 | 87 | 1003.2 |
| 20260507180005 | 53 | 247 | 15.0 | 27.0 | 0.00 | 0.57 | 0.00 | 86 | 1003.1 |
| 20260507175504 | 53 | 244 | 15.0 | 26.0 | 0.00 | 0.57 | 0.00 | 85 | 1003.1 |
| 20260507174504 | 54 | 216 | 14.0 | 31.0 | 0.00 | 0.57 | 0.00 | 84 | 1003.1 |
| 20260507174005 | 54 | 210 | 17.0 | 31.0 | 0.00 | 0.57 | 0.00 | 85 | 1002.8 |
| 20260507173504 | 54 | 232 | 15.0 | 27.0 | 0.00 | 0.57 | 0.00 | 86 | 1002.7 |
| 20260507173005 | 53 | 233 | 17.0 | 27.0 | 0.00 | 0.58 | 0.00 | 87 | 1002.8 |
| 20260507172507 | 54 | 200 | 17.0 | 27.0 | 0.00 | 0.58 | 0.00 | 87 | 1003.1 |
| 20260507172005 | 54 | 192 | 16.0 | 26.0 | 0.00 | 0.58 | 0.00 | 87 | 1003.2 |
| 20260507171504 | 54 | 209 | 12.0 | 26.0 | 0.00 | 0.58 | 0.00 | 86 | 1003.1 |
| 20260507171005 | 54 | 222 | 12.0 | 26.0 | 0.00 | 0.58 | 0.00 | 85 | 1003.2 |
| 20260507170504 | 55 | 225 | 13.0 | 28.0 | 0.00 | 0.58 | 0.00 | 85 | 1003.1 |
| 20260507170005 | 55 | 346 | 17.0 | 30.0 | 0.00 | 0.58 | 0.00 | 86 | 1002.9 |
| 20260507165504 | 54 | 1 | 15.0 | 30.0 | 0.00 | 0.58 | 0.00 | 87 | 1002.9 |
| 20260507165005 | 54 | 178 | 23.0 | 30.0 | 0.00 | 0.58 | 0.00 | 89 | 1003.0 |
| 20260507164504 | 54 | 3 | 8.0 | 21.0 | 0.00 | 0.58 | 0.00 | 89 | 1002.9 |
| 20260507164005 | 54 | 1 | 14.0 | 26.0 | 0.00 | 0.58 | 0.00 | 89 | 1002.9 |
| 20260507163504 | 54 | 350 | 17.0 | 26.0 | 0.00 | 0.60 | 0.00 | 89 | 1002.9 |
| 20260507162005 | 54 | 338 | 22.0 | 32.0 | 0.00 | 0.60 | 0.00 | 89 | 1002.9 |
| 20260507161503 | 54 | 267 | 19.0 | 32.0 | 0.00 | 0.61 | 0.00 | 90 | 1003.0 |
| 20260507161004 | 54 | 225 | 17.0 | 29.0 | 0.00 | 0.61 | 0.00 | 90 | 1002.7 |
| 20260507160506 | 53 | 213 | 10.0 | 26.0 | 0.00 | 0.64 | 0.00 | 90 | 1002.5 |
| 20260507155507 | 54 | 1 | 19.0 | 25.0 | 0.00 | 0.64 | 0.00 | 89 | 1002.8 |
| 20260507155008 | 54 | 335 | 15.0 | 25.0 | 0.00 | 0.65 | 0.00 | 88 | 1002.9 |
| 20260507154507 | 55 | 292 | 17.0 | 23.0 | 0.00 | 0.65 | 0.00 | 87 | 1002.9 |
| 20260507153007 | 55 | 351 | 13.0 | 21.0 | 0.00 | 0.66 | 0.00 | 84 | 1002.8 |
| 20260507152506 | 56 | 210 | 11.0 | 21.0 | 0.00 | 0.66 | 0.00 | 84 | 1002.7 |
| 20260507152008 | 56 | 252 | 10.0 | 21.0 | 0.00 | 0.68 | 0.00 | 84 | 1002.6 |
| 20260507151007 | 56 | 234 | 12.0 | 21.0 | 0.00 | 0.69 | 0.00 | 85 | 1002.5 |
| 20260507150506 | 56 | 134 | 13.0 | 21.0 | 0.00 | 0.69 | 0.00 | 86 | 1002.7 |
| 20260507150007 | 55 | 169 | 14.0 | 17.0 | 0.00 | 0.69 | 0.00 | 86 | 1002.7 |
| 20260507145506 | 55 | 179 | 8.0 | 19.0 | 0.00 | 0.69 | 0.00 | 86 | 1002.7 |
| 20260507145008 | 55 | 194 | 8.0 | 19.0 | 0.00 | 0.69 | 0.00 | 86 | 1002.6 |
| 20260507143506 | 56 | 177 | 8.0 | 17.0 | 0.00 | 0.69 | 0.00 | 85 | 1002.8 |
| 20260507143007 | 56 | 174 | 8.0 | 17.0 | 0.00 | 0.69 | 0.00 | 85 | 1002.7 |
| 20260507142506 | 56 | 192 | 7.0 | 17.0 | 0.00 | 0.69 | 0.00 | 85 | 1002.4 |
| 20260507142007 | 56 | 217 | 6.0 | 17.0 | 0.00 | 0.71 | 0.00 | 83 | 1002.0 |
| 20260507141506 | 56 | 207 | 11.0 | 17.0 | 0.00 | 0.71 | 0.00 | 83 | 1002.1 |
| 20260507141007 | 56 | 352 | 11.0 | 16.0 | 0.00 | 0.71 | 0.00 | 83 | 1002.1 |
| 20260507140507 | 56 | 339 | 8.0 | 13.0 | 0.00 | 0.71 | 0.00 | 83 | 1002.1 |
| 20260507135510 | 56 | 336 | 10.0 | 13.0 | 0.00 | 0.74 | 0.00 | 82 | 1002.4 |
| 20260507134007 | 56 | 317 | 8.0 | 11.0 | 0.00 | 0.77 | 0.00 | 84 | 1002.4 |
| 20260507133506 | 56 | 339 | 7.0 | 15.0 | 0.00 | 0.78 | 0.00 | 85 | 1002.4 |
| 20260507133007 | 56 | 345 | 4.0 | 15.0 | 0.00 | 0.88 | 0.00 | 87 | 1002.4 |
| 20260507132506 | 56 | 339 | 12.0 | 17.0 | 0.00 | 1.00 | 0.00 | 91 | 1002.4 |
| 20260507132007 | 56 | 353 | 11.0 | 18.0 | 0.00 | 1.01 | 0.00 | 93 | 1002.4 |
| 20260507131506 | 55 | 353 | 9.0 | 18.0 | 0.00 | 1.05 | 0.00 | 95 | 1002.5 |
| 20260507131007 | 55 | 325 | 8.0 | 17.0 | 0.00 | 1.10 | 0.00 | 96 | 1002.5 |
| 20260507130506 | 55 | 299 | 10.0 | 17.0 | 0.00 | 1.14 | 0.00 | 97 | 1002.8 |
| 20260507130007 | 54 | 311 | 4.0 | 12.0 | 0.00 | 1.17 | 0.00 | 97 | 1002.6 |
| 20260507125506 | 54 | 342 | 3.0 | 9.0 | 0.00 | 1.22 | 0.00 | 97 | 1002.6 |
| 20260507125007 | 53 | 332 | 3.0 | 11.0 | 0.00 | 1.23 | 0.00 | 97 | 1002.4 |
| 20260507124506 | 53 | 309 | 6.0 | 11.0 | 0.00 | 1.23 | 0.00 | 97 | 1003.0 |
| 20260507124007 | 52 | 321 | 5.0 | 10.0 | 0.00 | 1.23 | 0.00 | 98 | 1002.7 |
| 20260507122506 | 52 | 325 | 5.0 | 9.0 | 0.00 | 1.25 | 0.00 | 98 | 1002.7 |
| 20260507122007 | 51 | 311 | 4.0 | 9.0 | 0.00 | 1.25 | 0.00 | 98 | 1002.6 |
| 20260507121506 | 51 | 311 | 4.0 | 7.0 | 0.00 | 1.26 | 0.00 | 98 | 1002.5 |
| 20260507121007 | 51 | 301 | 4.0 | 5.0 | 0.00 | 1.27 | 0.00 | 98 | 1002.6 |
| 20260507120506 | 51 | 338 | 2.0 | 4.0 | 0.00 | 1.27 | 0.00 | 98 | 1002.6 |
| 20260507120007 | 51 | 339 | 2.0 | 4.0 | 0.00 | 1.27 | 0.00 | 98 | 1002.7 |
| 20260507115507 | 51 | 328 | 2.0 | 4.0 | 0.00 | 1.27 | 0.00 | 99 | 1002.6 |
| 20260507114506 | 51 | 224 | 0.0 | 4.0 | 0.00 | 1.27 | 0.00 | 99 | 1002.6 |
| 20260507114007 | 50 | 240 | 2.0 | 6.0 | 0.00 | 1.27 | 0.00 | 99 | 1002.7 |
| 20260507113007 | 50 | 185 | 3.0 | 7.0 | 0.00 | 1.27 | 0.00 | 99 | 1002.8 |
| 20260507112007 | 50 | 1 | 5.0 | 7.0 | 0.00 | 1.27 | 0.00 | 99 | 1003.1 |
| 20260507111507 | 50 | 1 | 2.0 | 3.0 | 0.00 | 1.27 | 0.00 | 99 | 1003.0 |
| 20260507110506 | 50 | 0 | 0.0 | 0.0 | 0.00 | 1.27 | 0.00 | 99 | 1003.5 |
| 20260507110007 | 50 | 170 | 0.0 | 4.0 | 0.00 | 1.27 | 0.00 | 99 | 1003.3 |
| 20260507105506 | 50 | 166 | 0.0 | 5.0 | 0.00 | 1.27 | 0.00 | 99 | 1003.1 |
| 20260507105007 | 50 | 171 | 2.0 | 5.0 | 0.00 | 1.31 | 0.00 | 99 | 1003.3 |
| 20260507104506 | 51 | 169 | 2.0 | 5.0 | 0.00 | 1.31 | 0.00 | 99 | 1003.1 |
| 20260507104007 | 51 | 157 | 2.0 | 7.0 | 0.00 | 1.33 | 0.00 | 98 | 1003.1 |
| 20260507103506 | 51 | 162 | 4.0 | 7.0 | 0.00 | 1.33 | 0.00 | 98 | 1003.5 |
| 20260507103007 | 51 | 179 | 2.0 | 5.0 | 0.00 | 1.33 | 0.00 | 98 | 1003.7 |
| 20260507102506 | 51 | 181 | 2.0 | 5.0 | 0.00 | 1.33 | 0.00 | 98 | 1003.7 |
| 20260507102007 | 51 | 179 | 2.0 | 5.0 | 0.00 | 1.33 | 0.00 | 98 | 1003.8 |
| 20260507101507 | 51 | 155 | 2.0 | 11.0 | 0.00 | 1.33 | 0.00 | 98 | 1004.0 |
| 20260507101007 | 51 | 194 | 3.0 | 11.0 | 0.00 | 1.33 | 0.00 | 98 | 1004.3 |
| 20260507100506 | 51 | 254 | 2.0 | 6.0 | 0.00 | 1.33 | 0.00 | 98 | 1004.2 |
| 20260507100007 | 51 | 217 | 4.0 | 5.0 | 0.00 | 1.33 | 0.00 | 98 | 1004.2 |
| 20260507095506 | 51 | 269 | 2.0 | 5.0 | 0.00 | 1.33 | 0.00 | 98 | 1004.3 |
| 20260507095007 | 51 | 270 | 3.0 | 5.0 | 0.00 | 1.33 | 0.00 | 98 | 1003.9 |
| 20260507094007 | 51 | 187 | 2.0 | 3.0 | 0.00 | 1.33 | 0.00 | 98 | 1004.3 |
| 20260507093506 | 51 | 142 | 0.0 | 4.0 | 0.00 | 1.33 | 0.00 | 98 | 1004.2 |
| 20260507092008 | 52 | 145 | 2.0 | 11.0 | 0.00 | 1.33 | 0.00 | 98 | 1004.3 |
| 20260507091505 | 52 | 139 | 4.0 | 11.0 | 0.00 | 1.33 | 0.00 | 98 | 1004.2 |
| 20260507091007 | 52 | 147 | 8.0 | 11.0 | 0.00 | 1.33 | 0.00 | 98 | 1004.4 |
| 20260507090505 | 53 | 287 | 0.0 | 4.0 | 0.00 | 1.33 | 0.00 | 97 | 1004.0 |
| 20260507085505 | 52 | 279 | 2.0 | 5.0 | 0.00 | 1.33 | 0.00 | 98 | 1003.8 |
| 20260507084506 | 53 | 281 | 2.0 | 4.0 | 0.00 | 1.33 | 0.00 | 97 | 1003.8 |
| 20260507084007 | 53 | 272 | 2.0 | 4.0 | 0.00 | 1.33 | 0.00 | 97 | 1003.9 |
| 20260507083506 | 53 | 273 | 1.0 | 4.0 | 0.00 | 1.33 | 0.00 | 97 | 1003.9 |
| 20260507083006 | 53 | 274 | 3.0 | 4.0 | 0.00 | 1.33 | 0.00 | 97 | 1004.0 |
| 20260507082506 | 53 | 272 | 2.0 | 4.0 | 0.00 | 1.33 | 0.00 | 97 | 1003.8 |
| 20260507082007 | 53 | 270 | 2.0 | 4.0 | 0.00 | 1.33 | 0.00 | 97 | 1003.6 |
| 20260507081505 | 53 | 220 | 2.0 | 5.0 | 0.00 | 1.33 | 0.00 | 96 | 1003.8 |
| 20260507081006 | 53 | 176 | 2.0 | 5.0 | 0.00 | 1.33 | 0.00 | 96 | 1004.0 |
| 20260507080505 | 53 | 212 | 2.0 | 4.0 | 0.00 | 1.33 | 0.00 | 96 | 1004.0 |
| 20260507080007 | 53 | 270 | 0.0 | 2.0 | 0.00 | 1.33 | 0.00 | 96 | 1003.9 |
| 20260507075505 | 53 | 270 | 0.0 | 3.0 | 0.00 | 1.33 | 0.00 | 96 | 1004.2 |
| 20260507075007 | 53 | 270 | 0.0 | 4.0 | 0.00 | 1.33 | 0.00 | 96 | 1004.0 |
| 20260507074505 | 53 | 273 | 2.0 | 4.0 | 0.00 | 1.33 | 0.00 | 96 | 1004.3 |
| 20260507074006 | 53 | 299 | 3.0 | 4.0 | 0.00 | 1.33 | 0.00 | 96 | 1004.6 |
| 20260507073505 | 53 | 300 | 4.0 | 4.0 | 0.00 | 1.33 | 0.00 | 96 | 1004.5 |
| 20260507073006 | 53 | 286 | 2.0 | 5.0 | 0.00 | 1.33 | 0.00 | 96 | 1004.3 |
| 20260507072505 | 53 | 328 | 2.0 | 6.0 | 0.00 | 1.33 | 0.00 | 95 | 1004.4 |
| 20260507072006 | 53 | 351 | 2.0 | 6.0 | 0.00 | 1.33 | 0.00 | 95 | 1004.3 |
| 20260507071505 | 53 | 1 | 3.0 | 5.0 | 0.00 | 1.33 | 0.00 | 95 | 1004.3 |
| 20260507071006 | 53 | 319 | 2.0 | 4.0 | 0.00 | 1.33 | 0.00 | 95 | 1004.1 |
| 20260507070505 | 53 | 271 | 2.0 | 4.0 | 0.00 | 1.33 | 0.00 | 95 | 1004.4 |
| 20260507070010 | 53 | 270 | 3.0 | 4.0 | 0.00 | 1.33 | 0.00 | 95 | 1004.7 |
| 20260507065505 | 53 | 274 | 2.0 | 3.0 | 0.00 | 1.33 | 0.00 | 96 | 1004.6 |
| 20260507065006 | 53 | 317 | 1.0 | 4.0 | 0.00 | 1.33 | 0.00 | 96 | 1004.4 |
| 20260507064505 | 53 | 350 | 2.0 | 8.0 | 0.00 | 1.33 | 0.00 | 97 | 1004.2 |
| 20260507063505 | 53 | 350 | 4.0 | 8.0 | 0.00 | 1.33 | 0.00 | 97 | 1003.7 |
| 20260507063006 | 53 | 343 | 3.0 | 10.0 | 0.00 | 1.33 | 0.00 | 97 | 1003.6 |
| 20260507062505 | 53 | 354 | 5.0 | 11.0 | 0.00 | 1.33 | 0.00 | 97 | 1003.6 |
| 20260507062006 | 53 | 1 | 7.0 | 13.0 | 0.00 | 1.33 | 0.00 | 97 | 1003.3 |
| 20260507061505 | 53 | 331 | 7.0 | 15.0 | 0.00 | 1.33 | 0.00 | 97 | 1003.2 |
| 20260507061006 | 53 | 333 | 9.0 | 15.0 | 0.00 | 1.33 | 0.00 | 97 | 1003.2 |
| 20260507060506 | 53 | 1 | 8.0 | 14.0 | 0.00 | 1.33 | 0.00 | 97 | 1003.1 |
| 20260507060006 | 53 | 350 | 7.0 | 14.0 | 0.00 | 1.33 | 0.00 | 97 | 1003.1 |
| 20260507055006 | 53 | 350 | 5.0 | 11.0 | 0.00 | 1.33 | 0.00 | 97 | 1003.6 |
| 20260507054505 | 53 | 341 | 5.0 | 11.0 | 0.00 | 1.33 | 0.00 | 97 | 1003.8 |
| 20260507054006 | 53 | 354 | 7.0 | 11.0 | 0.00 | 1.33 | 0.00 | 97 | 1003.5 |
| 20260507053505 | 53 | 349 | 6.0 | 13.0 | 0.00 | 1.33 | 0.00 | 97 | 1003.8 |
| 20260507053006 | 52 | 338 | 8.0 | 13.0 | 0.00 | 1.33 | 0.00 | 98 | 1003.6 |
| 20260507052505 | 52 | 351 | 9.0 | 13.0 | 0.00 | 1.33 | 0.00 | 98 | 1004.5 |
| 20260507052006 | 52 | 1 | 5.0 | 9.0 | 0.00 | 1.33 | 0.00 | 98 | 1004.7 |
| 20260507051505 | 52 | 356 | 5.0 | 9.0 | 0.00 | 1.33 | 0.00 | 98 | 1004.6 |
| 20260507051006 | 52 | 341 | 5.0 | 8.0 | 0.00 | 1.33 | 0.00 | 98 | 1004.9 |
| 20260507050505 | 52 | 350 | 5.0 | 8.0 | 0.00 | 1.33 | 0.00 | 98 | 1005.3 |
| 20260507050006 | 52 | 1 | 4.0 | 8.0 | 0.00 | 1.33 | 0.00 | 98 | 1005.1 |
| 20260507045505 | 52 | 322 | 3.0 | 6.0 | 0.00 | 1.33 | 0.00 | 98 | 1005.1 |
| 20260507045006 | 52 | 290 | 4.0 | 6.0 | 0.00 | 1.33 | 0.00 | 98 | 1005.2 |
| 20260507044006 | 52 | 1 | 2.0 | 6.0 | 0.00 | 1.33 | 0.00 | 98 | 1004.8 |
| 20260507043505 | 52 | 1 | 3.0 | 6.0 | 0.00 | 1.33 | 0.00 | 98 | 1004.8 |
| 20260507042505 | 53 | 351 | 2.0 | 6.0 | 0.00 | 1.33 | 0.00 | 97 | 1004.3 |
| 20260507042006 | 53 | 352 | 3.0 | 6.0 | 0.00 | 1.33 | 0.00 | 97 | 1004.6 |
| 20260507041505 | 53 | 1 | 4.0 | 8.0 | 0.00 | 1.33 | 0.00 | 97 | 1004.7 |
| 20260507041006 | 53 | 1 | 4.0 | 8.0 | 0.00 | 1.33 | 0.00 | 97 | 1004.6 |
| 20260507040505 | 53 | 1 | 6.0 | 8.0 | 0.00 | 1.33 | 0.00 | 97 | 1005.0 |
| 20260507040006 | 53 | 1 | 5.0 | 7.0 | 0.00 | 1.33 | 0.00 | 97 | 1004.6 |
| 20260507035505 | 53 | 1 | 3.0 | 5.0 | 0.00 | 1.33 | 0.00 | 97 | 1004.3 |
| 20260507035006 | 53 | 354 | 4.0 | 4.0 | 0.00 | 1.33 | 0.00 | 97 | 1004.6 |
| 20260507034505 | 53 | 351 | 2.0 | 5.0 | 0.00 | 1.33 | 0.00 | 97 | 1005.2 |
| 20260507034006 | 53 | 356 | 2.0 | 5.0 | 0.00 | 1.33 | 0.00 | 97 | 1005.3 |